Sigfox identifier Datetime Temperature Humidity SNR
00388C0E 2018-10-09 07:31:58 21.1 38 13.9
00388C0E 2018-10-09 06:26:26 21.1 38 13.9
00388C0E 2018-10-09 05:20:56 21.1 38 14.1
00388C0E 2018-10-09 00:58:41 21.2 37 14.3
00388C0E 2018-10-08 22:47:30 21.1 37 14.8
00388C0E 2018-10-08 21:41:53 21.1 37 15.3
00388C0E 2018-10-08 19:30:42 21 37 15.3
00388C0E 2018-10-08 18:25:11 21 37 15.3
00388C0E 2018-10-08 16:14:01 20.8 37 15.3
00388C0E 2018-10-08 15:08:23 20.8 37 15.5
00388C0E 2018-10-08 11:51:43 20.6 36 15.5
00388C0E 2018-10-08 09:40:42 20.5 35 15.7
00388C0E 2018-10-08 08:35:07 20.5 36 15.6
00388C0E 2018-10-08 07:29:31 20.5 36 15.7
00388C0E 2018-10-08 06:23:53 20.5 36 15.7
00388C0E 2018-10-08 05:18:16 20.6 37 15.6
00388C0E 2018-10-08 04:12:40 20.6 37 15.7
00388C0E 2018-10-08 03:07:05 20.6 37 15.6
00388C0E 2018-10-08 02:01:31 20.6 37 15.8
00388C0E 2018-10-08 00:55:54 20.6 38 15.8
00388C0E 2018-10-07 23:50:19 20.6 38 15.8
00388C0E 2018-10-07 22:44:43 20.6 38 15.8
00388C0E 2018-10-07 21:39:11 20.7 38 15.3
00388C0E 2018-10-07 20:33:36 20.7 39 15.7
00388C0E 2018-10-07 19:28:04 20.8 39 15.8
00388C0E 2018-10-07 18:22:27 20.7 39 15.7
00388C0E 2018-10-07 17:16:51 20.7 39 15.6
00388C0E 2018-10-07 16:11:17 20.7 39 15.8
00388C0E 2018-10-07 15:05:48 20.7 39 16
00388C0E 2018-10-07 14:00:11 20.7 39 15.7
00388C0E 2018-10-07 12:54:38 20.7 39 15.1
00388C0E 2018-10-07 11:49:02 20.7 39 15.6
00388C0E 2018-10-07 10:43:30 20.8 39 15.6
00388C0E 2018-10-07 09:37:55 20.7 39 15.7
00388C0E 2018-10-07 08:32:23 20.8 39 15.4
00388C0E 2018-10-07 07:26:52 20.8 39 15.4
00388C0E 2018-10-07 06:21:22 20.8 40 15
00388C0E 2018-10-07 05:15:42 20.8 40 15
00388C0E 2018-10-07 04:10:08 20.8 40 18.5
00388C0E 2018-10-07 03:04:31 20.8 40 18.4
00388C0E 2018-10-07 01:58:53 20.8 40 18.5
00388C0E 2018-10-07 00:53:16 20.9 40 18.6
00388C0E 2018-10-06 23:47:42 20.9 40 18.5
00388C0E 2018-10-06 22:42:06 20.9 40 18.4
00388C0E 2018-10-06 21:36:32 21 40 18.5
00388C0E 2018-10-06 20:30:58 21 40 18.6
00388C0E 2018-10-06 19:25:22 21 40 18.6
00388C0E 2018-10-06 18:19:48 21 40 18.8
00388C0E 2018-10-06 17:14:10 21 41 18.7
00388C0E 2018-10-06 16:08:32 21 41 18.8
00388C0E 2018-10-06 15:02:56 21 41 19
00388C0E 2018-10-06 13:57:19 21 41 19.2
00388C0E 2018-10-06 12:51:39 21 41 19.2
00388C0E 2018-10-06 11:46:04 21 41 19.3
00388C0E 2018-10-06 10:40:25 21 41 19.5
00388C0E 2018-10-06 09:34:48 21 41 19.7
00388C0E 2018-10-06 08:29:12 21 41 19.7
00388C0E 2018-10-06 07:23:35 21 41 19.9
00388C0E 2018-10-06 06:17:56 21 42 20.1
00388C0E 2018-10-06 05:12:19 21.2 42 20.4
00388C0E 2018-10-06 04:06:41 21.2 42 20.7
00388C0E 2018-10-06 03:01:03 21.2 43 21
00388C0E 2018-10-06 01:55:23 21.2 43 21.4
00388C0E 2018-10-06 00:49:45 21.3 43 16.3
00388C0E 2018-10-05 23:44:05 21.4 43 16.3
00388C0E 2018-10-05 22:38:24 21.4 44 16
00388C0E 2018-10-05 21:32:45 21.4 44 15.9
00388C0E 2018-10-05 20:27:07 21.4 45 16.4
00388C0E 2018-10-05 19:21:29 21.5 45 17
00388C0E 2018-10-05 18:15:52 21.5 45 16.9
00388C0E 2018-10-05 17:10:12 21.5 46 16.1
00388C0E 2018-10-05 16:04:31 21.5 48 18.8
00388C0E 2018-10-05 14:58:50 21.7 57 0